Location: T�bingen+AIT
(48.5342°N, 9.0700°E)
Time: 01:49:54
(UTC+02:00)

SPOT 5 - Pass Details

Date: 14 September 2017
Orbit: 623 x 816 km, 98.4° (Epoch: 23 September)

Event Time Altitude Azimuth Distance (km) Brightness Sun altitude
Exits shadow 23:14:20 30° 301° (WNW) 1,135 4.3 -31.7°
Drops below altitude 10° 23:17:02 10° 331° (NNW) 2,006 6.0 -32.0°
Sets 23:19:23 0° 339° (NNW) 2,926 7.0 -32.2°
